Simultaneous Nadir Overpasses (SNOs) Predictions

Prediction of SNOs between GOES-15 and LANDSAT-8 Satellite Orbit:

Table of predicted SNOs for the next 14.0 days since TLE Epoch: 9/24/2022
Index Date Time (GOES-15) GOES-15 Lat,Lon LANDSAT-8 Lat,Lon Distance(km) Time Diff (sec)
1 09/25/2022 06:28:18 0.29,-127.96 1.07,-124.35 411.44 80
2 09/25/2022 18:49:34 -0.31,-127.99 -0.01,-129.51 171.64 80
3 09/27/2022 18:40:02 -0.30,-128.05 -0.61,-126.54 170.84 80
4 09/28/2022 07:01:27 0.32,-128.05 -0.45,-131.75 419.28 80
5 09/30/2022 06:49:15 0.31,-128.10 0.16,-128.78 77.90 80
6 10/02/2022 06:34:23 0.30,-128.13 0.78,-125.82 262.57 80
7 10/02/2022 18:55:38 -0.31,-128.14 0.28,-130.98 322.60 80
8 10/04/2022 18:46:07 -0.30,-128.17 -0.35,-128.02 17.36 80
9 10/06/2022 18:33:55 -0.30,-128.20 -0.98,-125.06 357.24 80
10 10/07/2022 06:55:18 0.31,-128.21 -0.12,-130.25 231.94 80
